• Join FlightAware (Why Join?)
  • Login
  • US Flag 
04:06PM EDT


 

Airport Tracker/Info


-or-


 

Live Flight TrackerFlight Track Log ✈ RPA4911 ✈ 04-Jul-2013 ✈ KEWR - KALB

Flight Track Log - Related Links

Times and Time Zones

All times are in EDT time to prevent confusion due to time zone crossing. See the RPA4911 flight status page for this flight to view local times or setup timezone preferences in your user account.

Time Position Orientation Groundspeed Altitude Reporting Facility
EDT Latitude Longitude Course Direction KTS MPH feet Rate Location/Type
04:27PM 40.6333 -74.2000 77° East 208 239 2,500  Level New York TRACON
04:28PM 40.6333 -74.2833 270° West 214 246 4,600 1,320 Climbing New York TRACON
04:29PM 41.0855 -74.1346 North  Level FlightAware Approximate
04:29PM 40.6833 -74.3167 333° Northwest 280 322 5,200  Level New York TRACON
04:30PM 41.1604 -74.0867 74° East  Level FlightAware Approximate
04:30PM 40.7500 -74.2833 21° North 279 321 6,200  Level New York TRACON
04:31PM 41.1833 -73.9566 90° East  Level FlightAware Approximate
04:31PM 40.8167 -74.2667 11° North 272 313 7,000  Level New York TRACON
04:32PM 41.2177 -73.8444 77° East  Level FlightAware Approximate
04:32PM 40.9000 -74.2333 17° North 286 329 7,100  Level New York TRACON
04:33PM 40.9667 -74.2000 21° North 283 326 7,100  Level New York TRACON
04:35PM 41.1233 -74.2283 352° North 283 326 7,100  Level Boston Center
04:36PM 41.2003 -74.2306 359° North 278 320 7,100 -60 Level Boston Center
04:37PM 41.2778 -74.2078 12° North 278 320 7,000 -60 Descending Boston Center
04:38PM 41.3594 -74.1797 14° North 273 314 7,000  Level Boston Center
04:39PM 41.4431 -74.1653 North 273 314 7,000  Level Boston Center
04:40PM 41.5142 -74.1478 10° North 278 320 7,000 1,140 Level Boston Center
04:41PM 41.5939 -74.1250 12° North 273 314 9,300 1,500 Climbing Boston Center
04:42PM 41.6669 -74.1047 12° North 266 306 10,000 300 Climbing Boston Center
04:43PM 41.7508 -74.0819 11° North 282 325 10,000  Level Boston Center
04:44PM 41.8428 -74.0564 12° North 327 376 10,000  Level Boston Center
04:45PM 41.9056 -74.0411 10° North 342 394 10,000  Level Boston Center
04:46PM 41.9978 -74.0128 13° North 339 390 10,000  Level Boston Center
04:47PM 42.0875 -73.9900 11° North 338 389 10,000  Level Boston Center
04:47PM 42.1733 -73.9669 11° North 339 390 10,100 -120 Climbing Boston Center
04:48PM 42.2611 -73.9578 North 306 352 9,800 -660 Descending Boston Center
04:50PM 42.3486 -73.9569 360° North 267 307 8,800 -1,020 Descending Boston Center
04:51PM 42.4278 -73.9619 357° North 276 318 7,700 -1,080 Descending Boston Center
04:52PM 42.5047 -73.9664 358° North 276 318 6,700 -1,320 Descending Boston Center
04:53PM 42.5778 -73.9656 360° North 269 310 5,100 -1,380 Descending Boston Center
04:54PM 42.6528 -73.9672 359° North 263 303 4,000 -1,020 Descending Boston Center
04:55PM 42.7258 -73.9550 North 266 306 3,100 -900 Descending Boston Center